EW2373 Weather Reports


Display with metric or nautical units.
time (UTC)temp
F
wind
direction
speed
MPH
gust
MPH
rain 1hr
in
rain 24hr
in
rain mn
in
humidity
%
barometer
mb
20260504050024 58 162 0.0 0.0 0.00 0.00 0.00 55 1011.3
20260504044521 59 146 0.0 0.0 0.00 0.00 0.00 55 1011.4
20260504043029 59 218 0.0 0.0 0.00 0.00 0.00 54 1011.3
20260504041509 59 188 0.0 0.0 0.00 0.00 0.00 55 1011.4
20260504040005 59 170 0.0 0.0 0.00 0.00 0.00 55 1011.7
20260504034501 59 203 0.0 0.0 0.00 0.00 0.00 57 1012.4
20260504033102 60 175 0.0 0.0 0.00 0.00 0.00 55 1012.6
20260504031554 59 212 0.0 0.0 0.00 0.00 0.00 55 1012.5
20260504030052 59 153 0.0 0.0 0.00 0.00 0.00 56 1012.4
20260504024549 59 181 0.0 0.0 0.00 0.00 0.00 57 1012.7
20260504023042 60 171 0.0 0.0 0.00 0.00 0.00 56 1012.5
20260504021537 61 212 0.0 0.0 0.00 0.00 0.00 55 1012.5
20260504020048 61 179 0.0 0.0 0.00 0.00 0.00 56 1012.4
20260504014537 61 143 0.0 0.0 0.00 0.00 0.00 55 1012.3
20260504013034 61 159 0.0 0.0 0.00 0.00 0.00 55 1011.9
20260504011521 61 153 0.0 0.0 0.00 0.00 0.00 54 1011.8
20260504010019 62 185 0.0 0.0 0.00 0.00 0.00 53 1012.0
20260504004510 63 185 0.0 0.0 0.00 0.00 0.00 52 1012.0
20260504003008 64 191 0.0 0.0 0.00 0.00 0.00 51 1011.9
20260504001502 66 233 0.0 0.0 0.00 0.00 0.00 48 1012.1
20260504000108 66 206 0.0 0.0 0.00 0.00 0.00 47 1012.3
20260503234556 66 239 0.0 0.0 0.00 0.00 0.00 47 1012.6
20260503233049 67 247 0.0 0.0 0.00 0.00 0.00 47 1012.9
20260503231548 67 245 0.0 0.0 0.00 0.00 0.00 47 1013.0
20260503230107 67 231 0.0 0.0 0.00 0.00 0.00 46 1013.0
20260503224539 67 219 0.0 0.0 0.00 0.00 0.00 46 1012.8
20260503223035 67 262 0.0 0.0 0.00 0.00 0.00 46 1012.5
20260503221530 67 179 0.0 0.0 0.00 0.00 0.00 46 1012.4
20260503220031 67 191 0.0 0.0 0.00 0.00 0.00 47 1012.4
20260503214521 67 222 0.0 0.0 0.00 0.00 0.00 47 1012.7
20260503213017 66 227 0.0 0.0 0.00 0.00 0.00 45 1012.9
20260503211513 66 222 0.0 0.0 0.00 0.00 0.00 47 1013.4
20260503210008 66 205 0.0 0.0 0.00 0.00 0.00 47 1013.6
20260503204503 66 221 0.0 0.0 0.00 0.00 0.00 46 1014.0
20260503203114 65 207 0.0 0.0 0.00 0.00 0.00 47 1014.4
20260503201555 65 236 0.0 0.0 0.00 0.00 0.00 48 1015.0
20260503200050 64 162 0.0 0.0 0.00 0.00 0.00 49 1015.4
20260503194545 64 221 0.0 0.0 0.00 0.00 0.00 48 1016.0
20260503193041 64 226 0.0 0.0 0.00 0.00 0.00 47 1016.3
20260503191544 65 198 0.0 0.0 0.00 0.00 0.00 49 1016.6
20260503190039 64 187 0.0 0.0 0.00 0.00 0.00 47 1016.8
20260503184527 64 210 0.0 0.0 0.00 0.00 0.00 49 1017.1
20260503183021 64 236 0.0 0.0 0.00 0.00 0.00 46 1017.2
20260503181517 63 210 0.0 0.0 0.00 0.00 0.00 46 1017.5
20260503180013 62 233 0.0 0.0 0.00 0.00 0.00 47 1018.0
20260503174507 62 231 0.0 0.0 0.00 0.00 0.00 48 1018.5
20260503173004 62 195 0.0 0.0 0.00 0.00 0.00 47 1018.9
20260503171604 61 203 0.0 0.0 0.00 0.00 0.00 47 1019.4
20260503100106 43 210 0.0 0.0 0.00 0.00 0.00 4 1020.8
20260503081532 45 201 0.0 0.0 0.00 0.00 0.00 43 1021.0